sat.trackr.live / text

‹ back to catalog

2025-180B

NORAD 65260 · 2025-180B

PAYLOAD ACTIVE UNKNOWN

§ Identity

Operator
Country
TBD
Launch date
2025-08-19
Launch site
JSC
Launch vehicle
Mass (kg)
RCS (m²)

External: N2YO · Heavens-Above · Gunter

§ Orbital elements

Epoch: 2026-05-15T15:24:51.319296Z

Period
95.04 min
Inclination
97.5222°
Eccentricity
0.0015928
Mean motion
15.15157103 rev/d
Perigee alt
509.5 km
Apogee alt
531.5 km
Semi-major
6,898.6 km
B*
1.3465e-4
RAAN
263.1906°
Arg perigee
77.1969°
Mean anomaly
283.1552°
Rev number
4,073

§ Raw data

2025-180B1 65260U 25180B   26135.64226064  .00002530  00000+0  13465-3 0  99932 65260  97.5222 263.1906 0015928  77.1969 283.1552 15.15157103 40738

JSON: /api/v1/satellites/65260 · /tle

For live sub-satellite position, see the globe view (requires WebGL).

§ Visibility from observer

Set your observer location to see the next 7 days of passes ≥ 10°. The values pass through the URL so the page stays shareable.

No JS? Fill the form by hand. The geolocation button needs JavaScript.